Weather in Uptar

Russia / Magadan District     59°53′58″N   150°52′22″E
В апреле 2022 года жителям России запретили посещать сайт meteo.paraplan.net по решению Генеральной прокуратуры. Аудитория сайта уменьшилась в 10 раз. Владельцы сайта не видят смысла в поддержке погодного сервера в таких условиях. Сайт будет закрыт в октябре.
temp.,
°C
wind,
m/s
gust,
m/s
humid.,
%
clouds,
%
prec.,
mm/h
press.,
hPa
HPBL,
m
5 october, wed
wed523:00−5n7985100 1.1 999471
02:00−4n6974100 0.3 994476
05:00−4n5980100 0.4 991506
08:00−5n51081100 0.6 989619
11:00−3nne7959100 0.6 987981
14:00−3nne4561100 0.0 986983
17:00−4nne346990 0.1 986721
20:00−5n3576100 0.1 987410
6 october, thu
thu623:00−6n347999 0.1 987162
02:00−7nnw347595 0.0 988208
05:00−7nnw237494 0.0 989190
08:00−7nnw357098 0.0 991250
11:00−5nnw465298 0.0 9921044
14:00−4nnw354264 0.0 9931501
17:00−4nnw234859 0.0 996396
20:00−7n326418 0.0 99921
7 october, fri
fri723:00−8n34685 0.0 100150
02:00−8n3467100 0.0 100360
05:00−8n3468100 0.0 100558
08:00−7nnw346985 0.0 100786
11:00−3nnw455294 0.0 1008382
14:00−2n5846100 0.0 10091035
17:00−3n3360100 0.0 1011104
20:00−6nne327032 0.0 101326
8 october, sat
sat823:00−7nne227019 0.0 101417
02:00−8nne226928 0.0 101515
05:00−8nne117010 0.0 101611
08:00−8nne11695 0.0 101612
11:00−5wsw11535 0.0 1016255
14:00−3wsw22535 0.0 1015501
17:00−3sw11625 0.0 1015101
20:00−6s11745 0.0 101610
9 october, sun
sun923:00−6s11805 0.0 101610
02:00−7ne018256 0.0 101510
05:00−7ne008252 0.0 101410
08:00−7nne118310 0.0 101410
11:00−4w11725 0.0 1013257
14:00−2wsw227064 0.0 1012503
17:00
20:00−6n118793 0.0 101522